Year,Month,Day,Hour,Minute,Value (Times are PST for temperature in C)
2015,06,28,00,00,21.00
2015,06,28,00,01,20.90
2015,06,28,00,02,20.90
2015,06,28,00,03,20.80
2015,06,28,00,04,20.80
2015,06,28,00,05,20.80
2015,06,28,00,06,20.70
2015,06,28,00,07,20.70
2015,06,28,00,08,20.60
2015,06,28,00,09,20.60
2015,06,28,00,10,20.50
2015,06,28,00,11,20.40
2015,06,28,00,12,20.40
2015,06,28,00,13,20.30
2015,06,28,00,14,20.30
2015,06,28,00,15,20.30
2015,06,28,00,16,20.20
2015,06,28,00,17,20.20
2015,06,28,00,18,20.20
2015,06,28,00,19,20.20
2015,06,28,00,20,20.20
2015,06,28,00,21,20.20
2015,06,28,00,22,20.10
2015,06,28,00,23,20.10
2015,06,28,00,24,20.10
2015,06,28,00,25,20.00
2015,06,28,00,26,20.00
2015,06,28,00,27,20.00
2015,06,28,00,28,19.90
2015,06,28,00,29,19.90
2015,06,28,00,30,19.80
2015,06,28,00,31,19.80
2015,06,28,00,32,19.80
2015,06,28,00,33,19.70
2015,06,28,00,34,19.70
2015,06,28,00,35,19.70
2015,06,28,00,36,19.80
2015,06,28,00,37,19.80
2015,06,28,00,38,19.80
2015,06,28,00,39,19.80
2015,06,28,00,40,19.80
2015,06,28,00,41,19.80
2015,06,28,00,42,19.80
2015,06,28,00,43,19.80
2015,06,28,00,44,19.80
2015,06,28,00,45,19.80
2015,06,28,00,46,19.70
2015,06,28,00,47,19.70
2015,06,28,00,48,19.70
2015,06,28,00,49,19.70
2015,06,28,00,50,19.70
2015,06,28,00,51,19.60
2015,06,28,00,52,19.60
2015,06,28,00,53,19.60
2015,06,28,00,54,19.60
2015,06,28,00,55,19.50
2015,06,28,00,56,19.50
2015,06,28,00,57,19.40
2015,06,28,00,58,19.40
2015,06,28,00,59,19.40
2015,06,28,01,00,19.30
2015,06,28,01,01,19.30
2015,06,28,01,02,19.30
2015,06,28,01,03,19.40
2015,06,28,01,04,19.40
2015,06,28,01,05,19.50
2015,06,28,01,06,19.60
2015,06,28,01,07,19.60
2015,06,28,01,08,19.70
2015,06,28,01,09,19.70
2015,06,28,01,10,19.70
2015,06,28,01,11,19.70
2015,06,28,01,12,19.60
2015,06,28,01,13,19.60
2015,06,28,01,14,19.60
2015,06,28,01,15,19.50
2015,06,28,01,16,19.50
2015,06,28,01,17,19.50
2015,06,28,01,18,19.50
2015,06,28,01,19,19.50
2015,06,28,01,20,19.40
2015,06,28,01,21,19.40
2015,06,28,01,22,19.40
2015,06,28,01,23,19.30
2015,06,28,01,24,19.30
2015,06,28,01,25,19.30
2015,06,28,01,26,19.20
2015,06,28,01,27,19.20
2015,06,28,01,28,19.20
2015,06,28,01,29,19.10
2015,06,28,01,30,19.10
2015,06,28,01,31,19.10
2015,06,28,01,32,19.00
2015,06,28,01,33,19.00
2015,06,28,01,34,18.90
2015,06,28,01,35,18.90
2015,06,28,01,36,18.90
2015,06,28,01,37,18.90
2015,06,28,01,38,18.80
2015,06,28,01,39,18.80
2015,06,28,01,40,18.80
2015,06,28,01,41,18.80
2015,06,28,01,42,18.70
2015,06,28,01,43,18.70
2015,06,28,01,44,18.70
2015,06,28,01,45,18.70
2015,06,28,01,46,18.70
2015,06,28,01,47,18.70
2015,06,28,01,48,18.70
2015,06,28,01,49,18.70
2015,06,28,01,50,18.70
2015,06,28,01,51,18.70
2015,06,28,01,52,18.70
2015,06,28,01,53,18.70
2015,06,28,01,54,18.70
2015,06,28,01,55,18.70
2015,06,28,01,56,18.70
2015,06,28,01,57,18.70
2015,06,28,01,58,18.70
2015,06,28,01,59,18.70
2015,06,28,02,00,18.70
2015,06,28,02,01,18.70
2015,06,28,02,02,18.70
2015,06,28,02,03,18.60
2015,06,28,02,04,18.60
2015,06,28,02,05,18.60
2015,06,28,02,06,18.60
2015,06,28,02,07,18.60
2015,06,28,02,08,18.60
2015,06,28,02,09,18.60
2015,06,28,02,10,18.60
2015,06,28,02,11,18.60
2015,06,28,02,12,18.60
2015,06,28,02,13,18.60
2015,06,28,02,14,18.60
2015,06,28,02,15,18.50
2015,06,28,02,16,18.50
2015,06,28,02,17,18.50
2015,06,28,02,18,18.50
2015,06,28,02,19,18.50
2015,06,28,02,20,18.50
2015,06,28,02,21,18.50
2015,06,28,02,22,18.50
2015,06,28,02,23,18.50
2015,06,28,02,24,18.50
2015,06,28,02,25,18.50
2015,06,28,02,26,18.50
2015,06,28,02,27,18.50
2015,06,28,02,28,18.40
2015,06,28,02,29,18.40
2015,06,28,02,30,18.40
2015,06,28,02,31,18.40
2015,06,28,02,32,18.30
2015,06,28,02,33,18.30
2015,06,28,02,34,18.30
2015,06,28,02,35,18.20
2015,06,28,02,36,18.20
2015,06,28,02,37,18.20
2015,06,28,02,38,18.10
2015,06,28,02,39,18.10
2015,06,28,02,40,18.10
2015,06,28,02,41,18.00
2015,06,28,02,42,18.00
2015,06,28,02,43,17.90
2015,06,28,02,44,17.90
2015,06,28,02,45,17.90
2015,06,28,02,46,17.90
2015,06,28,02,47,17.90
2015,06,28,02,48,17.90
2015,06,28,02,49,17.90
2015,06,28,02,50,17.90
2015,06,28,02,51,17.90
2015,06,28,02,52,17.90
2015,06,28,02,53,17.90
2015,06,28,02,54,17.90
2015,06,28,02,55,17.90
2015,06,28,02,56,18.00
2015,06,28,02,57,18.00
2015,06,28,02,58,18.00
2015,06,28,02,59,18.10
2015,06,28,03,00,18.10
2015,06,28,03,01,18.10
2015,06,28,03,02,18.10
2015,06,28,03,03,18.10
2015,06,28,03,04,18.00
2015,06,28,03,05,18.00
2015,06,28,03,06,17.90
2015,06,28,03,07,17.90
2015,06,28,03,08,17.90
2015,06,28,03,09,17.90
2015,06,28,03,10,17.90
2015,06,28,03,11,17.90
2015,06,28,03,12,17.90
2015,06,28,03,13,17.90
2015,06,28,03,14,17.90
2015,06,28,03,15,17.90
2015,06,28,03,16,17.90
2015,06,28,03,17,17.90
2015,06,28,03,18,17.90
2015,06,28,03,19,17.90
2015,06,28,03,20,17.90
2015,06,28,03,21,17.90
2015,06,28,03,22,17.90
2015,06,28,03,23,17.90
2015,06,28,03,24,17.90
2015,06,28,03,25,17.90
2015,06,28,03,26,17.90
2015,06,28,03,27,17.90
2015,06,28,03,28,17.90
2015,06,28,03,29,17.90
2015,06,28,03,30,17.90
2015,06,28,03,31,17.90
2015,06,28,03,32,17.90
2015,06,28,03,33,17.80
2015,06,28,03,34,17.80
2015,06,28,03,35,17.80
2015,06,28,03,36,17.80
2015,06,28,03,37,17.80
2015,06,28,03,38,17.80
2015,06,28,03,39,17.80
2015,06,28,03,40,17.90
2015,06,28,03,41,17.90
2015,06,28,03,42,18.00
2015,06,28,03,43,18.10
2015,06,28,03,44,18.20
2015,06,28,03,45,18.40
2015,06,28,03,46,18.50
2015,06,28,03,47,18.70
2015,06,28,03,48,18.90
2015,06,28,03,49,19.10
2015,06,28,03,50,19.20
2015,06,28,03,51,19.60
2015,06,28,03,52,20.10
2015,06,28,03,53,20.40
2015,06,28,03,54,20.60
2015,06,28,03,55,20.70
2015,06,28,03,56,20.90
2015,06,28,03,57,21.20
2015,06,28,03,58,21.30
2015,06,28,03,59,21.40
2015,06,28,04,00,21.70
2015,06,28,04,01,21.90
2015,06,28,04,02,22.20
2015,06,28,04,03,22.50
2015,06,28,04,04,22.90
2015,06,28,04,05,23.30
2015,06,28,04,06,23.50
2015,06,28,04,07,23.70
2015,06,28,04,08,23.80
2015,06,28,04,09,24.00
2015,06,28,04,10,24.10
2015,06,28,04,11,24.10
2015,06,28,04,12,24.10
2015,06,28,04,13,24.20
2015,06,28,04,14,24.20
2015,06,28,04,15,24.10
2015,06,28,04,16,24.10
2015,06,28,04,17,24.00
2015,06,28,04,18,24.00
2015,06,28,04,19,23.90
2015,06,28,04,20,23.90
2015,06,28,04,21,23.90
2015,06,28,04,22,23.90
2015,06,28,04,23,23.80
2015,06,28,04,24,23.80
2015,06,28,04,25,23.80
2015,06,28,04,26,23.70
2015,06,28,04,27,23.70
2015,06,28,04,28,23.70
2015,06,28,04,29,23.60
2015,06,28,04,30,23.50
2015,06,28,04,31,23.40
2015,06,28,04,32,23.40
2015,06,28,04,33,23.30
2015,06,28,04,34,23.20
2015,06,28,04,35,23.10
2015,06,28,04,36,22.90
2015,06,28,04,37,22.80
2015,06,28,04,38,22.60
2015,06,28,04,39,22.50
2015,06,28,04,40,22.30
2015,06,28,04,41,22.20
2015,06,28,04,42,22.00
2015,06,28,04,43,21.90
2015,06,28,04,44,21.80
2015,06,28,04,45,21.60
2015,06,28,04,46,21.60
2015,06,28,04,47,21.50
2015,06,28,04,48,21.40
2015,06,28,04,49,21.40
2015,06,28,04,50,21.40
2015,06,28,04,51,21.30
2015,06,28,04,52,21.20
2015,06,28,04,53,21.20
2015,06,28,04,54,21.20
2015,06,28,04,55,21.10
2015,06,28,04,56,21.10
2015,06,28,04,57,21.00
2015,06,28,04,58,21.00
2015,06,28,04,59,20.90
2015,06,28,05,00,20.90
2015,06,28,05,01,20.90
2015,06,28,05,02,20.90
2015,06,28,05,03,21.00
2015,06,28,05,04,21.00
2015,06,28,05,05,21.10
2015,06,28,05,06,21.10
2015,06,28,05,07,21.10
2015,06,28,05,08,21.20
2015,06,28,05,09,21.30
2015,06,28,05,10,21.30
2015,06,28,05,11,21.30
2015,06,28,05,12,21.30
2015,06,28,05,13,21.30
2015,06,28,05,14,21.30
2015,06,28,05,15,21.30
2015,06,28,05,16,21.20
2015,06,28,05,17,21.20
2015,06,28,05,18,21.20
2015,06,28,05,19,21.10
2015,06,28,05,20,21.10
2015,06,28,05,21,21.10
2015,06,28,05,22,21.10
2015,06,28,05,23,21.00
2015,06,28,05,24,21.00
2015,06,28,05,25,21.00
2015,06,28,05,26,21.00
2015,06,28,05,27,20.90
2015,06,28,05,28,20.90
2015,06,28,05,29,20.90
2015,06,28,05,30,20.80
2015,06,28,05,31,20.80
2015,06,28,05,32,20.80
2015,06,28,05,33,20.80
2015,06,28,05,34,20.80
2015,06,28,05,35,20.70
2015,06,28,05,36,20.70
2015,06,28,05,37,20.70
2015,06,28,05,38,20.70
2015,06,28,05,39,20.70
2015,06,28,05,40,20.70
2015,06,28,05,41,20.60
2015,06,28,05,42,20.60
2015,06,28,05,43,20.60
2015,06,28,05,44,20.60
2015,06,28,05,45,20.60
2015,06,28,05,46,20.60
2015,06,28,05,47,20.60
2015,06,28,05,48,20.50
2015,06,28,05,49,20.50
2015,06,28,05,50,20.60
2015,06,28,05,51,20.60
2015,06,28,05,52,20.60
2015,06,28,05,53,20.60
2015,06,28,05,54,20.70
2015,06,28,05,55,20.70
2015,06,28,05,56,20.70
2015,06,28,05,57,20.80
2015,06,28,05,58,20.80
2015,06,28,05,59,20.80
2015,06,28,06,00,20.90
2015,06,28,06,01,21.00
2015,06,28,06,02,21.00
2015,06,28,06,03,21.10
2015,06,28,06,04,21.20
2015,06,28,06,05,21.20
2015,06,28,06,06,21.30
2015,06,28,06,07,21.50
2015,06,28,06,08,21.70
2015,06,28,06,09,21.80
2015,06,28,06,10,22.00
2015,06,28,06,11,22.20
2015,06,28,06,12,22.30
2015,06,28,06,13,22.50
2015,06,28,06,14,22.60
2015,06,28,06,15,22.80
2015,06,28,06,16,22.90
2015,06,28,06,17,23.10
2015,06,28,06,18,23.10
2015,06,28,06,19,23.20
2015,06,28,06,20,23.30
2015,06,28,06,21,23.40
2015,06,28,06,22,23.40
2015,06,28,06,23,23.40
2015,06,28,06,24,23.40
2015,06,28,06,25,23.40
2015,06,28,06,26,23.40
2015,06,28,06,27,23.40
2015,06,28,06,28,23.50
2015,06,28,06,29,23.50
2015,06,28,06,30,23.60
2015,06,28,06,31,23.60
2015,06,28,06,32,23.80
2015,06,28,06,33,23.80
2015,06,28,06,34,23.90
2015,06,28,06,35,24.00
2015,06,28,06,36,24.10
2015,06,28,06,37,24.20
2015,06,28,06,38,24.20
2015,06,28,06,39,24.20
2015,06,28,06,40,24.30
2015,06,28,06,41,24.30
2015,06,28,06,42,24.40
2015,06,28,06,43,24.40
2015,06,28,06,44,24.40
2015,06,28,06,45,24.30
2015,06,28,06,46,24.40
2015,06,28,06,47,24.40
2015,06,28,06,48,24.30
2015,06,28,06,49,24.30
2015,06,28,06,50,24.30
2015,06,28,06,51,24.30
2015,06,28,06,52,24.30
2015,06,28,06,53,24.30
2015,06,28,06,54,24.30
2015,06,28,06,55,24.30
2015,06,28,06,56,24.30
2015,06,28,06,57,24.30
2015,06,28,06,58,24.30
2015,06,28,06,59,24.40
2015,06,28,07,00,24.40
2015,06,28,07,01,24.50
2015,06,28,07,02,24.60
2015,06,28,07,03,24.60
2015,06,28,07,04,24.60
2015,06,28,07,05,24.60
2015,06,28,07,06,24.60
2015,06,28,07,07,24.60
2015,06,28,07,08,24.60
2015,06,28,07,09,24.60
2015,06,28,07,10,24.60
2015,06,28,07,11,24.60
2015,06,28,07,12,24.60
2015,06,28,07,13,24.60
2015,06,28,07,14,24.60
2015,06,28,07,15,24.60
2015,06,28,07,16,24.60
2015,06,28,07,17,24.60
2015,06,28,07,18,24.50
2015,06,28,07,19,24.40
2015,06,28,07,20,24.30
2015,06,28,07,21,24.20
2015,06,28,07,22,24.20
2015,06,28,07,23,24.20
2015,06,28,07,24,24.20
2015,06,28,07,25,24.30
2015,06,28,07,26,24.30
2015,06,28,07,27,24.40
2015,06,28,07,28,24.40
2015,06,28,07,29,24.40
2015,06,28,07,30,24.40
2015,06,28,07,31,24.40
2015,06,28,07,32,24.40
2015,06,28,07,33,24.40
2015,06,28,07,34,24.30
2015,06,28,07,35,24.30
2015,06,28,07,36,24.30
2015,06,28,07,37,24.30
2015,06,28,07,38,24.30
2015,06,28,07,39,24.30
2015,06,28,07,40,24.30
2015,06,28,07,41,24.30
2015,06,28,07,42,24.40
2015,06,28,07,43,24.40
2015,06,28,07,44,24.50
2015,06,28,07,45,24.60
2015,06,28,07,46,24.80
2015,06,28,07,47,24.90
2015,06,28,07,48,25.00
2015,06,28,07,49,25.10
2015,06,28,07,50,25.20
2015,06,28,07,51,25.30
2015,06,28,07,52,25.50
2015,06,28,07,53,25.60
2015,06,28,07,54,25.70
2015,06,28,07,55,25.80
2015,06,28,07,56,25.90
2015,06,28,07,57,25.90
2015,06,28,07,58,26.00
2015,06,28,07,59,26.10
2015,06,28,08,00,26.10
2015,06,28,08,01,26.20
2015,06,28,08,02,26.20
2015,06,28,08,03,26.30
2015,06,28,08,04,26.30
2015,06,28,08,05,26.30
2015,06,28,08,06,26.40
2015,06,28,08,07,26.40
2015,06,28,08,08,26.50
2015,06,28,08,09,26.60
2015,06,28,08,10,26.70
2015,06,28,08,11,26.80
2015,06,28,08,12,26.90
2015,06,28,08,13,27.00
2015,06,28,08,14,27.10
2015,06,28,08,15,27.20
2015,06,28,08,16,27.20
2015,06,28,08,17,27.20
2015,06,28,08,18,27.10
2015,06,28,08,19,27.00
2015,06,28,08,20,26.90
2015,06,28,08,21,26.90
2015,06,28,08,22,26.90
2015,06,28,08,23,26.90
2015,06,28,08,24,26.90
2015,06,28,08,25,26.90
2015,06,28,08,26,27.00
2015,06,28,08,27,27.10
2015,06,28,08,28,27.10
2015,06,28,08,29,27.20
2015,06,28,08,30,27.20
2015,06,28,08,31,27.20
2015,06,28,08,32,27.20
2015,06,28,08,33,27.20
2015,06,28,08,34,27.20
2015,06,28,08,35,27.20
2015,06,28,08,36,27.30
2015,06,28,08,37,27.30
2015,06,28,08,38,27.40
2015,06,28,08,39,27.50
2015,06,28,08,40,27.60
2015,06,28,08,41,27.70
2015,06,28,08,42,27.90
2015,06,28,08,43,28.00
2015,06,28,08,44,28.10
2015,06,28,08,45,28.10
2015,06,28,08,46,28.20
2015,06,28,08,47,28.30
2015,06,28,08,48,28.30
2015,06,28,08,49,28.30
2015,06,28,08,50,28.30
2015,06,28,08,51,28.30
2015,06,28,08,52,28.30
2015,06,28,08,53,28.30
2015,06,28,08,54,28.40
2015,06,28,08,55,28.40
2015,06,28,08,56,28.50
2015,06,28,08,57,28.60
2015,06,28,08,58,28.70
2015,06,28,08,59,28.80
2015,06,28,09,00,28.80
2015,06,28,09,01,28.80
2015,06,28,09,02,28.90
2015,06,28,09,03,28.90
2015,06,28,09,04,28.90
2015,06,28,09,05,28.90
2015,06,28,09,06,28.80
2015,06,28,09,07,28.80
2015,06,28,09,08,28.70
2015,06,28,09,09,28.70
2015,06,28,09,10,28.70
2015,06,28,09,11,28.70
2015,06,28,09,12,28.70
2015,06,28,09,13,28.70
2015,06,28,09,14,28.70
2015,06,28,09,15,28.70
2015,06,28,09,16,28.80
2015,06,28,09,17,28.80
2015,06,28,09,18,28.80
2015,06,28,09,19,28.70
2015,06,28,09,20,28.70
2015,06,28,09,21,28.70
2015,06,28,09,22,28.70
2015,06,28,09,23,28.70
2015,06,28,09,24,28.70
2015,06,28,09,25,28.70
2015,06,28,09,26,28.70
2015,06,28,09,27,28.70
2015,06,28,09,28,28.70
2015,06,28,09,29,28.70
2015,06,28,09,30,28.70
2015,06,28,09,31,28.70
2015,06,28,09,32,28.60
2015,06,28,09,33,28.60
2015,06,28,09,34,28.60
2015,06,28,09,35,28.60
2015,06,28,09,36,28.50
2015,06,28,09,37,28.40
2015,06,28,09,38,28.30
2015,06,28,09,39,28.30
2015,06,28,09,40,28.30
2015,06,28,09,41,28.30
2015,06,28,09,42,28.30
2015,06,28,09,43,28.30
2015,06,28,09,44,28.30
2015,06,28,09,45,28.30
2015,06,28,09,46,28.30
2015,06,28,09,47,28.40
2015,06,28,09,48,28.40
2015,06,28,09,49,28.40
2015,06,28,09,50,28.40
2015,06,28,09,51,28.30
2015,06,28,09,52,28.30
2015,06,28,09,53,28.30
2015,06,28,09,54,28.40
2015,06,28,09,55,28.40
2015,06,28,09,56,28.30
2015,06,28,09,57,28.30
2015,06,28,09,58,28.30
2015,06,28,09,59,28.30
2015,06,28,10,00,28.30
2015,06,28,10,01,28.30
2015,06,28,10,02,28.30
2015,06,28,10,03,28.30
2015,06,28,10,04,28.40
2015,06,28,10,05,28.50
2015,06,28,10,06,28.50
2015,06,28,10,07,28.50
2015,06,28,10,08,28.60
2015,06,28,10,09,28.60
2015,06,28,10,10,28.70
2015,06,28,10,11,28.80
2015,06,28,10,12,28.80
2015,06,28,10,13,29.00
2015,06,28,10,14,29.10
2015,06,28,10,15,29.10
2015,06,28,10,16,29.10
2015,06,28,10,17,29.20
2015,06,28,10,18,29.10
2015,06,28,10,19,29.00
2015,06,28,10,20,29.00
2015,06,28,10,21,28.90
2015,06,28,10,22,28.90
2015,06,28,10,23,29.00
2015,06,28,10,24,29.00
2015,06,28,10,25,29.10
2015,06,28,10,26,29.20
2015,06,28,10,27,29.30
2015,06,28,10,28,29.30
2015,06,28,10,29,29.40
2015,06,28,10,30,29.50
2015,06,28,10,31,29.50
2015,06,28,10,32,29.50
2015,06,28,10,33,29.50
2015,06,28,10,34,29.40
2015,06,28,10,35,29.40
2015,06,28,10,36,29.50
2015,06,28,10,37,29.50
2015,06,28,10,38,29.60
2015,06,28,10,39,29.70
2015,06,28,10,40,29.70
2015,06,28,10,41,29.70
2015,06,28,10,42,29.70
2015,06,28,10,43,29.70
2015,06,28,10,44,29.70
2015,06,28,10,45,29.70
2015,06,28,10,46,29.70
2015,06,28,10,47,29.80
2015,06,28,10,48,29.80
2015,06,28,10,49,29.90
2015,06,28,10,50,29.90
2015,06,28,10,51,30.00
2015,06,28,10,52,30.10
2015,06,28,10,53,30.20
2015,06,28,10,54,30.20
2015,06,28,10,55,30.30
2015,06,28,10,56,30.30
2015,06,28,10,57,30.30
2015,06,28,10,58,30.40
2015,06,28,10,59,30.40
2015,06,28,11,00,30.40
2015,06,28,11,01,30.30
2015,06,28,11,02,30.30
2015,06,28,11,03,30.30
2015,06,28,11,04,30.20
2015,06,28,11,05,30.10
2015,06,28,11,06,29.90
2015,06,28,11,07,29.80
2015,06,28,11,08,29.70
2015,06,28,11,09,29.50
2015,06,28,11,10,29.30
2015,06,28,11,11,29.20
2015,06,28,11,12,29.10
2015,06,28,11,13,29.00
2015,06,28,11,14,29.00
2015,06,28,11,15,29.00
2015,06,28,11,16,29.10
2015,06,28,11,17,29.10
2015,06,28,11,18,29.10
2015,06,28,11,19,29.10
2015,06,28,11,20,29.20
2015,06,28,11,21,29.30
2015,06,28,11,22,29.40
2015,06,28,11,23,29.40
2015,06,28,11,24,29.40
2015,06,28,11,25,29.40
2015,06,28,11,26,29.40
2015,06,28,11,27,29.40
2015,06,28,11,28,29.40
2015,06,28,11,29,29.50
2015,06,28,11,30,29.40
2015,06,28,11,31,29.40
2015,06,28,11,32,29.30
2015,06,28,11,33,29.30
2015,06,28,11,34,29.30
2015,06,28,11,35,29.30
2015,06,28,11,36,29.30
2015,06,28,11,37,29.20
2015,06,28,11,38,29.20
2015,06,28,11,39,29.10
2015,06,28,11,40,29.10
2015,06,28,11,41,29.00
2015,06,28,11,42,28.90
2015,06,28,11,43,28.80
2015,06,28,11,44,28.70
2015,06,28,11,45,28.70
2015,06,28,11,46,28.60
2015,06,28,11,47,28.50
2015,06,28,11,48,28.40
2015,06,28,11,49,28.30
2015,06,28,11,50,28.30
2015,06,28,11,51,28.20
2015,06,28,11,52,28.20
2015,06,28,11,53,28.20
2015,06,28,11,54,28.10
2015,06,28,11,55,28.00
2015,06,28,11,56,28.00
2015,06,28,11,57,27.90
2015,06,28,11,58,27.90
2015,06,28,11,59,27.90
2015,06,28,12,00,27.90
2015,06,28,12,01,27.90
2015,06,28,12,02,27.90
2015,06,28,12,03,27.90
2015,06,28,12,04,27.90
2015,06,28,12,05,27.90
2015,06,28,12,06,27.90
2015,06,28,12,07,27.90
2015,06,28,12,08,27.90
2015,06,28,12,09,27.90
2015,06,28,12,10,27.80
2015,06,28,12,11,27.80
2015,06,28,12,12,27.70
2015,06,28,12,13,27.70
2015,06,28,12,14,27.50
2015,06,28,12,15,27.40
2015,06,28,12,16,27.30
2015,06,28,12,17,27.30
2015,06,28,12,18,27.20
2015,06,28,12,19,27.20
2015,06,28,12,20,27.10
2015,06,28,12,21,27.10
2015,06,28,12,22,27.00
2015,06,28,12,23,26.90
2015,06,28,12,24,26.90
2015,06,28,12,25,26.80
2015,06,28,12,26,26.70
2015,06,28,12,27,26.60
2015,06,28,12,28,26.40
2015,06,28,12,29,26.30
2015,06,28,12,30,26.20
2015,06,28,12,31,26.10
2015,06,28,12,32,26.00
2015,06,28,12,33,25.90
2015,06,28,12,34,25.80
2015,06,28,12,35,25.80
2015,06,28,12,36,25.70
2015,06,28,12,37,25.60
2015,06,28,12,38,25.60
2015,06,28,12,39,25.60
2015,06,28,12,40,25.60
2015,06,28,12,41,25.50
2015,06,28,12,42,25.50
2015,06,28,12,43,25.40
2015,06,28,12,44,25.40
2015,06,28,12,45,25.40
2015,06,28,12,46,25.40
2015,06,28,12,47,25.40
2015,06,28,12,48,25.40
2015,06,28,12,49,25.40
2015,06,28,12,50,25.40
2015,06,28,12,51,25.30
2015,06,28,12,52,25.30
2015,06,28,12,53,25.20
2015,06,28,12,54,25.20
2015,06,28,12,55,25.20
2015,06,28,12,56,25.10
2015,06,28,12,57,25.10
2015,06,28,12,58,25.00
2015,06,28,12,59,25.00
2015,06,28,13,00,24.90
2015,06,28,13,01,24.90
2015,06,28,13,02,24.90
2015,06,28,13,03,24.90
2015,06,28,13,04,25.00
2015,06,28,13,05,25.00
2015,06,28,13,06,25.10
2015,06,28,13,07,25.10
2015,06,28,13,08,25.20
2015,06,28,13,09,25.20
2015,06,28,13,10,25.20
2015,06,28,13,11,25.20
2015,06,28,13,12,25.20
2015,06,28,13,13,25.30
2015,06,28,13,14,25.30
2015,06,28,13,15,25.30
2015,06,28,13,16,25.40
2015,06,28,13,17,25.40
2015,06,28,13,18,25.50
2015,06,28,13,19,25.50
2015,06,28,13,20,25.60
2015,06,28,13,21,25.60
2015,06,28,13,22,25.70
2015,06,28,13,23,25.70
2015,06,28,13,24,25.80
2015,06,28,13,25,25.90
2015,06,28,13,26,25.90
2015,06,28,13,27,25.90
2015,06,28,13,28,26.00
2015,06,28,13,29,26.10
2015,06,28,13,30,26.10
2015,06,28,13,31,26.10
2015,06,28,13,32,26.10
2015,06,28,13,33,26.20
2015,06,28,13,34,26.20
2015,06,28,13,35,26.20
2015,06,28,13,36,26.20
2015,06,28,13,37,26.20
2015,06,28,13,38,26.20
2015,06,28,13,39,26.20
2015,06,28,13,40,26.20
2015,06,28,13,41,26.20
2015,06,28,13,42,26.20
2015,06,28,13,43,26.20
2015,06,28,13,44,26.20
2015,06,28,13,45,26.20
2015,06,28,13,46,26.20
2015,06,28,13,47,26.20
2015,06,28,13,48,26.20
2015,06,28,13,49,26.30
2015,06,28,13,50,26.30
2015,06,28,13,51,26.30
2015,06,28,13,52,26.30
2015,06,28,13,53,26.20
2015,06,28,13,54,26.20
2015,06,28,13,55,26.20
2015,06,28,13,56,26.20
2015,06,28,13,57,26.20
2015,06,28,13,58,26.20
2015,06,28,13,59,26.20
2015,06,28,14,00,26.20
2015,06,28,14,01,26.20
2015,06,28,14,02,26.10
2015,06,28,14,03,26.10
2015,06,28,14,04,26.00
2015,06,28,14,05,25.90
2015,06,28,14,06,25.90
2015,06,28,14,07,25.90
2015,06,28,14,08,25.80
2015,06,28,14,09,25.80
2015,06,28,14,10,25.70
2015,06,28,14,11,25.70
2015,06,28,14,12,25.60
2015,06,28,14,13,25.60
2015,06,28,14,14,25.50
2015,06,28,14,15,25.50
2015,06,28,14,16,25.50
2015,06,28,14,17,25.40
2015,06,28,14,18,25.40
2015,06,28,14,19,25.40
2015,06,28,14,20,25.40
2015,06,28,14,21,25.40
2015,06,28,14,22,25.50
2015,06,28,14,23,25.40
2015,06,28,14,24,25.40
2015,06,28,14,25,25.30
2015,06,28,14,26,25.30
2015,06,28,14,27,25.20
2015,06,28,14,28,25.20
2015,06,28,14,29,25.10
2015,06,28,14,30,25.10
2015,06,28,14,31,25.10
2015,06,28,14,32,25.10
2015,06,28,14,33,25.10
2015,06,28,14,34,25.10
2015,06,28,14,35,25.10
2015,06,28,14,36,25.20
2015,06,28,14,37,25.20
2015,06,28,14,38,25.20
2015,06,28,14,39,25.10
2015,06,28,14,40,25.10
2015,06,28,14,41,25.10
2015,06,28,14,42,25.10
2015,06,28,14,43,25.10
2015,06,28,14,44,25.20
2015,06,28,14,45,25.20
2015,06,28,14,46,25.20
2015,06,28,14,47,25.30
2015,06,28,14,48,25.30
2015,06,28,14,49,25.40
2015,06,28,14,50,25.40
2015,06,28,14,51,25.50
2015,06,28,14,52,25.60
2015,06,28,14,53,25.70
2015,06,28,14,54,25.80
2015,06,28,14,55,25.80
2015,06,28,14,56,25.90
2015,06,28,14,57,25.90
2015,06,28,14,58,25.90
2015,06,28,14,59,26.00
2015,06,28,15,00,26.00
2015,06,28,15,01,26.10
2015,06,28,15,02,26.10
2015,06,28,15,03,26.10
2015,06,28,15,04,26.10
2015,06,28,15,05,26.10
2015,06,28,15,06,26.10
2015,06,28,15,07,26.10
2015,06,28,15,08,26.10
2015,06,28,15,09,26.10
2015,06,28,15,10,26.10
2015,06,28,15,11,26.10
2015,06,28,15,12,26.10
2015,06,28,15,13,26.10
2015,06,28,15,14,26.10
2015,06,28,15,15,26.10
2015,06,28,15,16,26.10
2015,06,28,15,17,26.10
2015,06,28,15,18,26.10
2015,06,28,15,19,26.00
2015,06,28,15,20,26.00
2015,06,28,15,21,25.90
2015,06,28,15,22,25.90
2015,06,28,15,23,25.90
2015,06,28,15,24,25.90
2015,06,28,15,25,25.90
2015,06,28,15,26,25.80
2015,06,28,15,27,25.80
2015,06,28,15,28,25.70
2015,06,28,15,29,25.70
2015,06,28,15,30,25.70
2015,06,28,15,31,25.60
2015,06,28,15,32,25.60
2015,06,28,15,33,25.60
2015,06,28,15,34,25.50
2015,06,28,15,35,25.50
2015,06,28,15,36,25.50
2015,06,28,15,37,25.40
2015,06,28,15,38,25.40
2015,06,28,15,39,25.40
2015,06,28,15,40,25.40
2015,06,28,15,41,25.30
2015,06,28,15,42,25.30
2015,06,28,15,43,25.30
2015,06,28,15,44,25.30
2015,06,28,15,45,25.30
2015,06,28,15,46,25.30
2015,06,28,15,47,25.30
2015,06,28,15,48,25.20
2015,06,28,15,49,25.20
2015,06,28,15,50,25.20
2015,06,28,15,51,25.20
2015,06,28,15,52,25.20
2015,06,28,15,53,25.10
2015,06,28,15,54,25.10
2015,06,28,15,55,25.10
2015,06,28,15,56,25.10
2015,06,28,15,57,25.10
2015,06,28,15,58,25.10
2015,06,28,15,59,25.10
2015,06,28,16,00,25.10
2015,06,28,16,01,25.10
2015,06,28,16,02,25.10
2015,06,28,16,03,25.00
2015,06,28,16,04,25.00
2015,06,28,16,05,24.90
2015,06,28,16,06,24.90
2015,06,28,16,07,24.80
2015,06,28,16,08,24.80
2015,06,28,16,09,24.80
2015,06,28,16,10,24.80
2015,06,28,16,11,24.80
2015,06,28,16,12,24.80
2015,06,28,16,13,24.90
2015,06,28,16,14,24.90
2015,06,28,16,15,24.90
2015,06,28,16,16,24.80
2015,06,28,16,17,24.80
2015,06,28,16,18,24.70
2015,06,28,16,19,24.60
2015,06,28,16,20,24.50
2015,06,28,16,21,24.30
2015,06,28,16,22,24.10
2015,06,28,16,23,24.00
2015,06,28,16,24,23.80
2015,06,28,16,25,23.80
2015,06,28,16,26,23.60
2015,06,28,16,27,23.50
2015,06,28,16,28,23.40
2015,06,28,16,29,23.30
2015,06,28,16,30,23.30
2015,06,28,16,31,23.20
2015,06,28,16,32,23.20
2015,06,28,16,33,23.10
2015,06,28,16,34,23.10
2015,06,28,16,35,23.10
2015,06,28,16,36,23.10
2015,06,28,16,37,23.10
2015,06,28,16,38,23.10
2015,06,28,16,39,23.10
2015,06,28,16,40,23.10
2015,06,28,16,41,23.20
2015,06,28,16,42,23.20
2015,06,28,16,43,23.20
2015,06,28,16,44,23.20
2015,06,28,16,45,23.20
2015,06,28,16,46,23.20
2015,06,28,16,47,23.20
2015,06,28,16,48,23.20
2015,06,28,16,49,23.20
2015,06,28,16,50,23.20
2015,06,28,16,51,23.20
2015,06,28,16,52,23.20
2015,06,28,16,53,23.20
2015,06,28,16,54,23.20
2015,06,28,16,55,23.20
2015,06,28,16,56,23.20
2015,06,28,16,57,23.20
2015,06,28,16,58,23.20
2015,06,28,16,59,23.20
2015,06,28,17,00,23.20
2015,06,28,17,01,23.20
2015,06,28,17,02,23.20
2015,06,28,17,03,23.10
2015,06,28,17,04,23.10
2015,06,28,17,05,23.00
2015,06,28,17,06,23.00
2015,06,28,17,07,23.00
2015,06,28,17,08,22.90
2015,06,28,17,09,22.90
2015,06,28,17,10,22.90
2015,06,28,17,11,22.90
2015,06,28,17,12,22.90
2015,06,28,17,13,22.90
2015,06,28,17,14,22.90
2015,06,28,17,15,22.90
2015,06,28,17,16,22.90
2015,06,28,17,17,22.90
2015,06,28,17,18,22.90
2015,06,28,17,19,23.00